Hourly Data Report for February 16, 2006

TORONTO CITY
ONTARIO

43°40'00.000" N
79°24'00.000" W
112.50 m
6158355
71508
XTO

Download Data

Hourly Data (February 2006)
Hourly Data Report for February 16, 2006
TIME
LST
Temp Definition
°C
Dew Point Definition
°C
Rel Hum Definition
%
Precip. Amount Definition
mm

Wind Dir Definition
10's deg

Wind Spd Definition
km/h
Visibility Definition
km
Stn Press Definition
kPa
Hmdx Definition


Wind Chill Definition


Weather Definition


00:00 1.0 -2.8 76   LegendMM LegendMM   100.96     LegendNANA
01:00 0.6 -4.2 70   LegendMM LegendMM   100.95     LegendNANA
02:00 0.6 -4.6 68   LegendMM LegendMM   101.02     LegendNANA
03:00 -0.8 -2.6 88   LegendMM LegendMM   100.94     LegendNANA
04:00 -1.1 -1.8 95   LegendMM LegendMM   100.82     LegendNANA
05:00 -0.8 -1.8 93   LegendMM LegendMM   100.76     LegendNANA
06:00 -1.0 -1.6 96   LegendMM LegendMM   100.71     LegendNANA
07:00 -0.5 -0.8 98   LegendMM LegendMM   100.55     LegendNANA
08:00 0.8 0.6 99   LegendMM LegendMM   100.63     LegendNANA
09:00 0.5 0.1 97   LegendMM LegendMM   100.65     LegendNANA
10:00 -0.3 -0.8 96   LegendMM LegendMM   100.59     LegendNANA
11:00 -0.5 -1.0 96   LegendMM LegendMM   100.58     LegendNANA
12:00 -1.1 -1.7 96   LegendMM LegendMM   100.55     LegendNANA
13:00 -1.4 -2.0 96   LegendMM LegendMM   100.40     LegendNANA
14:00 -1.7 -2.1 97   LegendMM LegendMM   100.34     LegendNANA
15:00 -1.6 -1.9 98   LegendMM LegendMM   100.22     LegendNANA
16:00 -1.4 -1.8 97   LegendMM LegendMM   100.11     LegendNANA
17:00 -1.1 -1.4 98   LegendMM LegendMM   100.01     LegendNANA
18:00 -0.5 -0.8 98   LegendMM LegendMM   99.83     LegendNANA
19:00 -0.1 -0.4 98   LegendMM LegendMM   99.66     LegendNANA
20:00 0.3 0.0 98   LegendMM LegendMM   99.51     LegendNANA
21:00 1.0 0.8 99   LegendMM LegendMM   99.36     LegendNANA
22:00 2.0 1.9 99   LegendMM LegendMM   99.13     LegendNANA
23:00 3.1 3.0 99   LegendMM LegendMM   98.89     LegendNANA

Notes on Data Quality.

Legend

  • E = Estimated
  • M = Missing
  • NA = Not Available*
  • [empty] = Indicates an unobserved value
Date modified: